Regional Weather Roundup
Issued by NWS Mt. Holly, NJ

Home | Current Version | Previous Version | Text Only | Print | Product List | Glossary On
Versions: 1 2 3 4 5 6 7 8 9 10 11 12 13 14 15 16 17 18 19 20 21 22 23 24 25 26 27
000
ASUS41 KPHI 230212
RWRPHI

REGIONAL WEATHER ROUNDUP
NATIONAL WEATHER SERVICE MOUNT HOLLY NJ
900 PM EST WED FEB 22 2017

NOTE:  "FAIR" INDICATES FEW OR NO CLOUDS BELOW 12,000 FEET WITH NO
SIGNIFICANT WEATHER AND/OR OBSTRUCTIONS TO VISIBILITY.

 * = STATION DOES NOT REPORT PRECIPITATION (E.G. RAIN, SNOW, ETC.)
        OR FOG.

NJZ015>026-230300-
SOUTHERN NEW JERSEY

CITY           SKY/WX    TMP DP  RH WIND       PRES   REMARKS
POMONA         PTCLDY    48  44  86 CALM      29.93S
WILDWOOD*      PTCLDY    46  44  93 CALM      29.94F
MILLVILLE      CLOUDY    43  43 100 CALM      29.93S
WRIGHTSTOWN    CLOUDY    49  43  79 CALM      29.90R
MOUNT HOLLY    CLOUDY    44  41  89 CALM      29.93R
TRENTON        PTCLDY    50  42  74 SW3       29.91S

$$
NJZ001>014-230300-
NORTHERN NEW JERSEY

CITY           SKY/WX    TMP DP  RH WIND       PRES   REMARKS
SUSSEX         CLEAR     39  38  96 CALM      29.90S
ANDOVER*         N/A     38  36  92 CALM      29.90S
MORRISTOWN     PTCLDY    46  39  76 CALM      29.91S
NEWARK         MOCLDY    51  42  71 CALM      29.91R
TETERBORO      PTCLDY    51  42  71 SW3       29.91R
CALDWELL       PTCLDY    47  39  74 CALM      29.91F
SOMERVILLE     PTCLDY    45  38  76 CALM      29.90R
ALLAIRE*       CLEAR     46  44  93 SW5       29.93R
TOMS RIVER*    CLOUDY    47  45  93 W3        29.94R

$$
PAZ043-044-047-054-055-060>062-066>071-230300-
EASTERN PENNSYLVANIA

CITY           SKY/WX    TMP DP  RH WIND       PRES   REMARKS
PHILADELPHIA   CLOUDY    52  44  74 SW6       29.94R
NORTH PHILA    CLOUDY    49  42  77 SW5       29.93F
BLUE BELL*     PTCLDY    45  41  87 CALM      29.91S
DOYLESTOWN     PTCLDY    51  42  71 CALM      29.91S
QUAKERTOWN*    CLOUDY    46  39  76 CALM      29.92S
PERKASIE*      FAIR      46  41  81 CALM      29.92S
POTTSTOWN      CLOUDY    47  40  76 CALM      29.93R
LANCASTER      PTCLDY    47  43  86 E3        29.91S
COATESVILLE    CLOUDY    50  43  76 CALM      29.93S
READING        PTCLDY    52  43  71 CALM      29.90R
ALLENTOWN      CLOUDY    47  38  71 CALM      29.90S
MOUNT POCONO   CLEAR     42  37  82 NW5       29.89R
HAZLETON       CLEAR     43  34  70 E3        29.92R
LEHIGHTON      FAIR      37  36  93 CALM      29.91S
WILKES BARRE   CLEAR     47  39  74 E3        29.88R

$$
DEZALL-MDZ008-012-015-019-020-230300-
DELAWARE AND EASTERN MARYLAND

CITY           SKY/WX    TMP DP  RH WIND       PRES   REMARKS
WILMINGTON     CLOUDY    47  45  93 CALM      29.93S
DOVER          CLOUDY    49  49 100 S3        29.92S
GEORGETOWN     PTCLDY    52  49  89 SW7       29.94S
EASTON         CLEAR     54  50  87 S5        29.97S
ABERDEEN       CLOUDY    43  41  91 CALM      29.93S
PATUXENT       MOCLDY    54  54 100 S3        29.93S
OCEAN CITY     CLOUDY    57  53  86 SW9G18    29.95S
WALLOPS ISLAND CLOUDY    54  54 100 S7        29.96F
CAMBRIDGE      CLOUDY    52  52 100 S6        29.94S
SALISBURY      CLOUDY    55  54  96 S6        29.94S

$$
PAZ001-021-NYZ056-072-MDZ011-DCZ001-230300-
OTHER NEARBY LOCATIONS

CITY           SKY/WX    TMP DP  RH WIND       PRES   REMARKS
HARRISBURG     CLOUDY    47  42  83 SE5       29.89S
STATE COLLEGE  CLEAR     54  41  62 CALM      29.86S
WILLIAMSPORT   CLEAR     45  36  70 CALM      29.88S
BINGHAMTON     CLEAR     49  41  74 S7        29.84S
NEW YORK CITY  CLOUDY    50  41  71 CALM      29.93S
BALTIMORE      CLOUDY    51  46  83 CALM      29.91S
WASHINGTON DC  MOCLDY    53  49  86 S8        29.92R

$$




USA.gov is the U.S. government's official web portal to all federal, state and local government web resources and services.